Content
SEND FEEDBACK

Daily
Averages
Monthly
Summary
United States of America

GLENVIEW, ILLINOIS


Home > North America > United States > Illinois
Elevation: 653 feet     Latitude: 42 05N     Longitude: 087 50W

WEATHER
 
SELECT A DAY
Number of Records: 194,883;   Date Range: 7/8/95 - 7/29/14
 
SHARE

PRINT THIS DATA

[ ← Previous Day ]
WEATHER ALMANAC - JANUARY 29, 2013
[ Next Day → ]
[ °C ]   °F
Weather ElementAverageHighLow
Temperature53.5 °F63 °F (12:52 pm)39 °F (12:52 am)
Dewpoint51.9 °F59 °F (2:41 pm)37.4 °F (12:36 am)
Humidity94.8 %100 % (12:12 am)82 % (2:28 pm)
Barometer29.57 in29.82 in (12:12 am)29.41 in (11:52 pm)
Wind Speed7.3 mph18.4 mph (4:52 am)
Wind Gust28.8 mph (4:52 am)
Weather ElementAverage
Visibility3 mi
Wind DirectionSE (137 °)

Weather ElementTotal
Precipitation2.93 in
Heating Degree Days14 (Base 65)
Growing Degree Days1 (Base 50)
Averaged from 61 records on January 29, 2013
WEATHER CONDITIONS BREAKOUT
WIND DIRECTION BREAKOUT
WEATHER BY HOUR - JANUARY 29, 2013
[ °C ]   °F
Local TimeTemperatureDewpointHumidityBarometerVisibilityWind DirectionWind SpeedGust SpeedPrecipitationEventsConditions
12:12 AM39.2 °F39.2 °F100 %29.82 in2.0 miESE (120°)5.8 mph0.01 inOvercast
12:36 AM39.2 °F37.4 °F93 %29.81 in1.5 miESE (120°)4.6 mph0.01 inOvercast
12:47 AM39.2 °F39.2 °F100 %29.79 in0.8 miESE (120°)4.6 mph0.01 inOvercast
12:52 AM39.0 °F39.0 °F100 %29.80 in0.8 miSE (130°)4.6 mph0.01 inMist
1:24 AM39.2 °F39.2 °F100 %29.76 in1.0 miSE (130°)3.5 mph0.03 inRainLight Rain
1:39 AM39.2 °F39.2 °F100 %29.75 in0.5 miSSE (160°)3.5 mph0.03 inFogFog
1:52 AM39.0 °F39.0 °F100 %29.75 in0.5 miSSE (160°)3.5 mph0.03 inFogFog
2:38 AM44.6 °F44.6 °F100 %29.72 in0.2 miSouth (180°)8.1 mph0.01 inFog-ThunderstormFog
2:52 AM45.0 °F44.1 °F97 %29.72 in0.2 miSouth (180°)8.1 mph0.03 inFog-RainLight Rain
3:36 AM51.8 °F51.8 °F100 %29.69 in1.2 miSouth (190°)10.4 mphOvercast
3:40 AM51.8 °F51.8 °F100 %29.68 in2.5 miSSW (200°)10.4 mph19.6 mphOvercast
3:48 AM55.4 °F55.4 °F100 %29.68 in4.0 miSSW (200°)15.0 mph24.2 mphOvercast
3:52 AM55.9 °F55.0 °F97 %29.69 in4.0 miSSW (200°)12.7 mph24.2 mphOvercast
4:52 AM57.9 °F57.0 °F97 %29.68 in6.0 miSSW (210°)18.4 mph28.8 mphOvercast
5:15 AM59.0 °F57.2 °F94 %29.67 in6.0 miSSW (210°)17.3 mph25.3 mphOvercast
5:52 AM60.1 °F55.9 °F86 %29.67 in7.0 miSSW (200°)13.8 mph24.2 mphOvercast
6:52 AM59.0 °F55.9 °F90 %29.66 in7.0 miSSW (200°)15.0 mph23.0 mphOvercast
7:52 AM61.0 °F57.0 °F87 %29.67 in6.0 miSSW (210°)17.3 mph25.3 mphOvercast
8:52 AM61.0 °F57.0 °F87 %29.67 in6.0 miSSW (210°)12.7 mphOvercast
9:52 AM61.0 °F57.0 °F87 %29.67 in6.0 miSSW (210°)13.8 mph24.2 mph0.04 inOvercast
10:52 AM61.0 °F57.0 °F87 %29.64 in6.0 miSSW (200°)13.8 mph23.0 mph0.00 inOvercast
11:52 AM62.1 °F57.9 °F86 %29.61 in6.0 miSSW (210°)13.8 mph25.3 mphOvercast
12:52 PM63.0 °F57.9 °F84 %29.59 in7.0 miSSW (200°)13.8 mphOvercast
1:52 PM62.1 °F57.9 °F86 %29.54 in6.0 miSSW (200°)15.0 mph24.2 mphOvercast
2:28 PM62.6 °F57.2 °F82 %29.56 in1.0 miSouth (190°)15.0 mph23.0 mph0.02 inRain-ThunderstormRain
2:41 PM60.8 °F59.0 °F94 %29.54 in1.2 miSSW (200°)13.8 mph24.2 mph0.15 inRain-ThunderstormHeavy Rain
2:47 PM60.8 °F59.0 °F94 %29.54 in2.0 miSouth (190°)12.7 mph0.16 inRain-ThunderstormLight Rain
2:52 PM61.0 °F59.0 °F93 %29.54 in3.0 miSouth (180°)8.1 mph0.16 inRainLight Rain
3:13 PM60.8 °F57.2 °F88 %29.52 in5.0 miSouth (180°)10.4 mph0.00 inOvercast
3:52 PM60.1 °F57.9 °F93 %29.52 in3.0 miSouth (180°)10.4 mph0.00 inRainLight Rain
3:55 PM60.8 °F57.2 °F88 %29.52 in1.0 miSouth (190°)11.5 mph0.01 inRainLight Rain
4:27 PM59.0 °F57.2 °F94 %29.50 in1.0 miWSW (250°)4.6 mph0.15 inRain-ThunderstormHeavy Thunderstorms and Rain
4:52 PM57.9 °F57.0 °F97 %29.51 in1.2 miWNW (300°)12.7 mph18.4 mph0.64 inRain-ThunderstormHeavy Rain
4:59 PM57.2 °F55.4 °F94 %29.51 in2.0 miWNW (300°)9.2 mph18.4 mph0.02 inRainRain
5:07 PM57.2 °F53.6 °F88 %29.50 in8.0 miNW (320°)6.9 mph0.02 inRainLight Rain
5:12 PM57.2 °F53.6 °F88 %29.50 in10.0 miNW (310°)6.9 mph0.02 inRainLight Rain
5:44 PM55.4 °F53.6 °F94 %29.50 in2.5 miCalm0.08 inRainRain
5:52 PM55.0 °F54.0 °F96 %29.49 in3.0 miCalm0.10 inRainRain
6:45 PM55.4 °F53.6 °F94 %29.51 in2.5 miWSW (240°)3.5 mph0.11 inRainRain
6:52 PM55.0 °F54.0 °F96 %29.50 in2.0 miCalm0.14 inRainRain
7:07 PM55.4 °F53.6 °F94 %29.49 in2.0 miCalm0.02 inRainLight Rain
7:15 PM53.6 °F53.6 °F100 %29.49 in2.0 miCalm0.03 inRainLight Rain
7:25 PM53.6 °F53.6 °F100 %29.48 in2.0 miCalm0.03 inRainLight Rain
7:33 PM53.6 °F53.6 °F100 %29.48 in2.0 miCalm0.04 inRainLight Rain
7:52 PM54.0 °F53.1 °F97 %29.48 in2.0 miCalm0.05 inRainLight Rain
7:59 PM53.6 °F53.6 °F100 %29.49 in4.0 miSSW (200°)4.6 mph0.01 inRainLight Rain
8:08 PM51.8 °F51.8 °F100 %29.49 in2.5 miSouth (180°)5.8 mph0.02 inRainLight Rain
8:31 PM53.6 °F51.8 °F94 %29.48 in2.0 miCalm0.04 inRainLight Rain
8:42 PM53.6 °F51.8 °F94 %29.46 in1.0 miCalm0.04 inRainLight Rain
8:50 PM51.8 °F51.8 °F100 %29.45 in0.5 miCalm0.05 inFog-RainLight Rain
8:52 PM51.1 °F51.1 °F100 %29.45 in0.2 miCalm0.05 inFog-RainLight Rain
9:03 PM53.6 °F51.8 °F94 %29.46 in1.2 miSSW (210°)3.5 mph0.01 inRainLight Rain
9:10 PM53.6 °F51.8 °F94 %29.46 in2.0 miSW (220°)3.5 mph0.01 inRainLight Rain
9:46 PM51.8 °F51.8 °F100 %29.43 in1.2 miCalm0.06 inRainLight Rain
9:49 PM51.8 °F51.8 °F100 %29.43 in1.0 miCalm0.06 inRainLight Rain
9:52 PM52.0 °F51.1 °F97 %29.43 in1.0 miCalm0.06 inRainLight Rain
10:04 PM51.8 °F51.8 °F100 %29.43 in0.5 miCalm0.01 inFog-RainLight Rain
10:29 PM46.4 °F46.4 °F100 %29.46 in1.2 miNE (50°)11.5 mph16.1 mph0.07 inRainRain
10:33 PM46.4 °F44.6 °F93 %29.45 in3.0 miNE (40°)15.0 mph20.7 mph0.08 inRainRain
10:52 PM45.0 °F44.1 °F97 %29.45 in4.0 miNNE (30°)10.4 mph0.13 inRainRain
11:52 PM43.0 °F42.1 °F97 %29.41 in9.0 miNE (50°)5.8 mph0.07 inRainLight Rain
Hourly data recorded from KPWK, located miles away from Glenview, Illinois







STORIES FROM OUR PARTNERS